QPF
0.00 0.00 0.00 0.00 0.00 0.00 0.00 0.00 0.00 0.00 0.00 0.00 0.00 0.00 0.00 0.00 0.00 0.00 0.00 0.01 0.01 0.01 0.01 0.00 0.01 0.01 0.01 0.01 0.00 0.01 0.01 0.02 0.02 0.02 0.03 0.03 0.03 0.03 0.02 0.04 0.06 0.05 0.05 0.05
0.00 0.00 0.00 0.00 0.00 0.00 0.00 0.00 0.00 0.00 0.00 0.00 0.00 0.00 0.00 0.00 0.00 0.00 0.00 0.01 0.01 0.01 0.01 0.01 0.00 0.00 0.00 0.01 0.01 0.02 0.02 0.03 0.02 0.02 0.02 0.02 0.02 0.02 0.02 0.03 0.07 0.06 0.05 0.05
0.00 0.00 0.00 0.00 0.00 0.00 0.00 0.00 0.00 0.00 0.00 0.00 0.00 0.00 0.00 0.01 0.00 0.00 0.00 0.00 0.00 0.00 0.01 0.01 0.00 0.00 0.00 0.00 0.00 0.01 0.01 0.02 0.02 0.02 0.02 0.02 0.02 0.02 0.02 0.02 0.06 0.07 0.05 0.03
0.00 0.00 0.00 0.00 0.00 0.00 0.01 0.00 0.00 0.00 0.00 0.00 0.00 0.01 0.01 0.04 0.00 0.00 0.00 0.00 0.00 0.00 0.01 0.01 0.01 0.00 0.00 0.00 0.00 0.00 0.01 0.01 0.02 0.03 0.03 0.03 0.03 0.03 0.03 0.03 0.05 0.07 0.06 0.03
0.00 0.00 0.00 0.00 0.00 0.00 0.00 0.00 0.00 0.00 0.00 0.01 0.02 0.01 0.01 0.01 0.00 0.00 0.00 0.00 0.00 0.00 0.01 0.01 0.01 0.01 0.01 0.00 0.00 0.00 0.00 0.00 0.01 0.02 0.03 0.03 0.03 0.03 0.03 0.03 0.05 0.07 0.06 0.04
0.00 0.00 0.00 0.00 0.00 0.00 0.00 0.00 0.00 0.00 0.01 0.02 0.01 0.00 0.01 0.00 0.00 0.00 0.00 0.00 0.00 0.00 0.01 0.01 0.01 0.01 0.00 0.00 0.00 0.00 0.00 0.00 0.01 0.02 0.03 0.03 0.04 0.05 0.05 0.05 0.05 0.08 0.07 0.05
0.00 0.00 0.00 0.00 0.00 0.00 0.00 0.00 0.03 0.02 0.03 0.01 0.00 0.00 0.00 0.00 0.00 0.00 0.00 0.01 0.01 0.00 0.00 0.00 0.00 0.00 0.00 0.00 0.00 0.00 0.00 0.00 0.01 0.01 0.02 0.03 0.05 0.06 0.06 0.05 0.07 0.11 0.10 0.07
0.00 0.00 0.00 0.00 0.00 0.00 0.00 0.00 0.02 0.01 0.03 0.01 0.00 0.01 0.01 0.00 0.00 0.00 0.00 0.00 0.00 0.00 0.00 0.00 0.00 0.00 0.00 0.00 0.00 0.00 0.01 0.01 0.02 0.02 0.03 0.03 0.04 0.05 0.05 0.05 0.06 0.09 0.08 0.07
0.00 0.00 0.00 0.00 0.00 0.00 0.00 0.00 0.00 0.01 0.00 0.01 0.01 0.02 0.01 0.00 0.00 0.00 0.00 0.00 0.00 0.00 0.00 0.00 0.00 0.00 0.00 0.00 0.00 0.01 0.01 0.02 0.02 0.02 0.02 0.02 0.02 0.02 0.02 0.03 0.03 0.03 0.04 0.06
0.00 0.00 0.00 0.00 0.00 0.00 0.00 0.00 0.00 0.00 0.00 0.01 0.03 0.03 0.01 0.02 0.01 0.00 0.00 0.02 0.05 0.01 0.00 0.00 0.00 0.00 0.00 0.01 0.01 0.01 0.02 0.02 0.02 0.01 0.01 0.01 0.00 0.01 0.01 0.01 0.02 0.02 0.02 0.03
0.00 0.00 0.00 0.00 0.00 0.00 0.00 0.00 0.00 0.00 0.00 0.01 0.04 0.04 0.04 0.03 0.01 0.01 0.01 0.03 0.05 0.02 0.01 0.01 0.01 0.01 0.01 0.01 0.02 0.01 0.01 0.01 0.01 0.01 0.00 0.00 0.00 0.00 0.01 0.01 0.02 0.02 0.02 0.03
0.00 0.00 0.00 0.00 0.00 0.00 0.00 0.00 0.00 0.01 0.01 0.01 0.02 0.03 0.02 0.02 0.01 0.02 0.03 0.07 0.09 0.05 0.02 0.01 0.01 0.01 0.01 0.01 0.01 0.01 0.01 0.00 0.00 0.01 0.01 0.01 0.01 0.01 0.01 0.02 0.02 0.02 0.03 0.03
0.00 0.00 0.00 0.00 0.00 0.00 0.00 0.00 0.00 0.00 0.01 0.01 0.01 0.02 0.01 0.01 0.01 0.02 0.05 0.06 0.04 0.04 0.02 0.01 0.01 0.01 0.01 0.01 0.01 0.01 0.01 0.00 0.00 0.01 0.01 0.01 0.01 0.02 0.02 0.02 0.03 0.03 0.02 0.02
0.00 0.00 0.01 0.02 0.01 0.01 0.00 0.00 0.00 0.00 0.00 0.01 0.01 0.01 0.02 0.03 0.03 0.02 0.03 0.03 0.03 0.02 0.01 0.01 0.01 0.00 0.00 0.00 0.01 0.02 0.01 0.00 0.01 0.01 0.01 0.01 0.01 0.02 0.02 0.02 0.03 0.03 0.02 0.02
0.00 0.00 0.01 0.00 0.00 0.00 0.00 0.00 0.00 0.00 0.00 0.01 0.03 0.02 0.04 0.03 0.03 0.02 0.01 0.02 0.02 0.02 0.01 0.04 0.06 0.01 0.00 0.00 0.01 0.03 0.01 0.01 0.00 0.00 0.01 0.01 0.01 0.01 0.02 0.02 0.02 0.02 0.02 0.02
0.00 0.00 0.00 0.00 0.00 0.00 0.00 0.00 0.00 0.00 0.00 0.01 0.02 0.02 0.02 0.03 0.03 0.01 0.01 0.02 0.03 0.03 0.02 0.03 0.03 0.02 0.01 0.01 0.02 0.03 0.03 0.01 0.01 0.00 0.01 0.01 0.02 0.01 0.01 0.02 0.02 0.02 0.02 0.03
0.00 0.00 0.00 0.00 0.00 0.00 0.00 0.00 0.00 0.00 0.00 0.00 0.01 0.02 0.02 0.04 0.02 0.01 0.01 0.01 0.03 0.03 0.03 0.02 0.02 0.02 0.03 0.03 0.03 0.04 0.04 0.03 0.02 0.02 0.01 0.02 0.02 0.02 0.02 0.02 0.03 0.03 0.03 0.04
0.00 0.00 0.00 0.00 0.00 0.00 0.00 0.00 0.00 0.00 0.00 0.00 0.00 0.00 0.01 0.04 0.02 0.01 0.01 0.01 0.03 0.04 0.04 0.04 0.03 0.03 0.03 0.04 0.05 0.05 0.05 0.06 0.04 0.04 0.03 0.03 0.03 0.03 0.04 0.04 0.05 0.05 0.04 0.03
0.00 0.00 0.00 0.00 0.00 0.01 0.01 0.01 0.00 0.00 0.00 0.00 0.00 0.00 0.01 0.01 0.02 0.01 0.01 0.01 0.03 0.04 0.04 0.05 0.07 0.07 0.06 0.06 0.06 0.06 0.06 0.06 0.05 0.05 0.04 0.04 0.04 0.04 0.04 0.04 0.04 0.04 0.03 0.04
0.00 0.00 0.00 0.00 0.00 0.01 0.03 0.03 0.01 0.01 0.01 0.00 0.00 0.00 0.01 0.02 0.04 0.03 0.01 0.01 0.03 0.04 0.05 0.04 0.04 0.06 0.07 0.08 0.08 0.08 0.07 0.05 0.05 0.05 0.05 0.05 0.06 0.05 0.05 0.04 0.04 0.05 0.04 0.04
0.00 0.00 0.00 0.00 0.01 0.01 0.02 0.03 0.01 0.01 0.03 0.02 0.02 0.02 0.02 0.02 0.02 0.02 0.01 0.01 0.04 0.04 0.04 0.04 0.04 0.05 0.09 0.11 0.11 0.11 0.08 0.05 0.04 0.04 0.03 0.03 0.04 0.05 0.06 0.05 0.05 0.06 0.05 0.05
0.03 0.02 0.01 0.01 0.02 0.04 0.02 0.02 0.03 0.04 0.03 0.02 0.02 0.03 0.02 0.01 0.02 0.02 0.01 0.02 0.03 0.05 0.05 0.04 0.04 0.05 0.07 0.09 0.09 0.09 0.08 0.06 0.05 0.04 0.04 0.04 0.04 0.04 0.03 0.04 0.05 0.05 0.06 0.05
0.05 0.04 0.03 0.02 0.03 0.04 0.03 0.03 0.02 0.01 0.02 0.01 0.01 0.01 0.01 0.01 0.01 0.02 0.02 0.03 0.03 0.04 0.05 0.06 0.05 0.04 0.04 0.04 0.04 0.05 0.06 0.05 0.05 0.05 0.05 0.05 0.05 0.05 0.05 0.05 0.06 0.06 0.05 0.05
0.03 0.02 0.02 0.02 0.02 0.04 0.06 0.05 0.02 0.01 0.02 0.01 0.01 0.01 0.01 0.01 0.02 0.02 0.02 0.02 0.03 0.02 0.04 0.05 0.04 0.04 0.04 0.04 0.03 0.03 0.04 0.04 0.03 0.04 0.04 0.06 0.07 0.08 0.07 0.07 0.07 0.07 0.06 0.06
0.02 0.02 0.03 0.03 0.04 0.03 0.03 0.02 0.02 0.01 0.01 0.01 0.01 0.01 0.01 0.01 0.02 0.02 0.01 0.02 0.01 0.01 0.02 0.02 0.02 0.03 0.04 0.04 0.04 0.03 0.03 0.03 0.04 0.05 0.06 0.06 0.07 0.08 0.08 0.07 0.07 0.07 0.07 0.07
0.03 0.03 0.04 0.05 0.05 0.05 0.04 0.02 0.01 0.01 0.01 0.01 0.01 0.01 0.01 0.01 0.02 0.02 0.02 0.03 0.02 0.02 0.02 0.02 0.02 0.03 0.03 0.04 0.04 0.03 0.03 0.03 0.04 0.04 0.06 0.05 0.05 0.05 0.04 0.04 0.05 0.06 0.06 0.07
MSLP
1005.38 1005.81 1006.05 1006.12 1006.06 1005.92 1005.76 1005.61 1005.50 1005.41 1005.34 1005.27 1005.17 1005.04 1004.92 1004.81 1004.76 1004.80 1004.94 1005.17 1005.47 1005.82 1006.17 1006.51 1006.83 1007.11 1007.39 1007.67 1007.99 1008.35 1008.74 1009.14 1009.51 1009.82 1010.02 1010.12 1010.10 1010.00 1009.85 1009.69 1009.58 1009.54 1009.58 1009.70
1005.78 1006.05 1006.15 1006.13 1006.02 1005.90 1005.79 1005.74 1005.72 1005.73 1005.70 1005.62 1005.46 1005.22 1004.93 1004.63 1004.39 1004.26 1004.25 1004.38 1004.64 1004.97 1005.36 1005.74 1006.11 1006.45 1006.77 1007.11 1007.47 1007.87 1008.30 1008.75 1009.16 1009.51 1009.75 1009.87 1009.85 1009.72 1009.54 1009.34 1009.18 1009.11 1009.14 1009.28
1006.04 1006.15 1006.12 1006.01 1005.88 1005.79 1005.78 1005.84 1005.96 1006.08 1006.13 1006.07 1005.85 1005.50 1005.05 1004.56 1004.11 1003.78 1003.60 1003.61 1003.77 1004.07 1004.45 1004.85 1005.24 1005.62 1005.98 1006.35 1006.74 1007.18 1007.66 1008.16 1008.64 1009.05 1009.36 1009.52 1009.53 1009.42 1009.22 1009.00 1008.82 1008.72 1008.73 1008.87
1006.14 1006.10 1005.96 1005.79 1005.67 1005.65 1005.75 1005.97 1006.25 1006.50 1006.64 1006.61 1006.36 1005.91 1005.30 1004.62 1003.97 1003.43 1003.07 1002.92 1002.98 1003.20 1003.53 1003.91 1004.30 1004.68 1005.05 1005.43 1005.84 1006.31 1006.84 1007.40 1007.95 1008.44 1008.83 1009.07 1009.16 1009.10 1008.93 1008.72 1008.52 1008.40 1008.39 1008.50
1006.06 1005.91 1005.69 1005.50 1005.42 1005.49 1005.74 1006.12 1006.55 1006.95 1007.19 1007.20 1006.94 1006.41 1005.68 1004.84 1004.00 1003.27 1002.73 1002.42 1002.34 1002.46 1002.71 1003.04 1003.39 1003.74 1004.08 1004.45 1004.86 1005.34 1005.90 1006.51 1007.14 1007.72 1008.21 1008.56 1008.74 1008.76 1008.65 1008.48 1008.29 1008.15 1008.11 1008.18
1005.85 1005.61 1005.36 1005.18 1005.16 1005.33 1005.71 1006.25 1006.84 1007.36 1007.70 1007.77 1007.52 1006.95 1006.14 1005.17 1004.19 1003.32 1002.63 1002.17 1001.96 1001.96 1002.11 1002.35 1002.63 1002.92 1003.21 1003.54 1003.92 1004.38 1004.95 1005.59 1006.28 1006.95 1007.54 1008.00 1008.29 1008.41 1008.37 1008.24 1008.08 1007.93 1007.86 1007.88
1005.54 1005.26 1005.00 1004.85 1004.90 1005.17 1005.66 1006.32 1007.03 1007.66 1008.09 1008.22 1008.00 1007.44 1006.60 1005.58 1004.53 1003.56 1002.77 1002.21 1001.89 1001.79 1001.83 1001.97 1002.15 1002.35 1002.56 1002.81 1003.14 1003.56 1004.10 1004.75 1005.46 1006.19 1006.86 1007.41 1007.80 1008.00 1008.05 1007.98 1007.83 1007.68 1007.58 1007.55
1005.22 1004.92 1004.68 1004.56 1004.66 1005.00 1005.57 1006.30 1007.09 1007.79 1008.29 1008.48 1008.31 1007.80 1006.99 1006.01 1004.96 1003.98 1003.16 1002.55 1002.16 1001.97 1001.92 1001.96 1002.03 1002.13 1002.24 1002.39 1002.63 1002.98 1003.46 1004.07 1004.78 1005.51 1006.21 1006.82 1007.27 1007.55 1007.66 1007.63 1007.51 1007.36 1007.23 1007.15
1004.94 1004.66 1004.44 1004.36 1004.49 1004.86 1005.45 1006.20 1007.00 1007.73 1008.26 1008.50 1008.41 1007.98 1007.28 1006.39 1005.44 1004.53 1003.75 1003.15 1002.74 1002.50 1002.37 1002.32 1002.29 1002.28 1002.28 1002.32 1002.45 1002.70 1003.10 1003.63 1004.28 1004.97 1005.66 1006.27 1006.74 1007.05 1007.19 1007.19 1007.09 1006.95 1006.80 1006.69
1004.78 1004.53 1004.34 1004.29 1004.43 1004.79 1005.35 1006.06 1006.82 1007.52 1008.05 1008.33 1008.31 1008.00 1007.45 1006.72 1005.92 1005.15 1004.48 1003.95 1003.57 1003.31 1003.14 1003.01 1002.89 1002.77 1002.66 1002.60 1002.61 1002.75 1003.03 1003.46 1004.00 1004.61 1005.23 1005.79 1006.23 1006.53 1006.68 1006.69 1006.60 1006.46 1006.30 1006.19
1004.79 1004.59 1004.45 1004.42 1004.55 1004.87 1005.35 1005.97 1006.63 1007.25 1007.74 1008.04 1008.09 1007.91 1007.52 1006.99 1006.40 1005.81 1005.29 1004.87 1004.55 1004.30 1004.11 1003.92 1003.73 1003.53 1003.32 1003.16 1003.07 1003.09 1003.25 1003.55 1003.96 1004.45 1004.95 1005.41 1005.78 1006.03 1006.15 1006.15 1006.07 1005.93 1005.79 1005.68
1004.95 1004.84 1004.76 1004.77 1004.89 1005.15 1005.54 1006.02 1006.55 1007.05 1007.47 1007.74 1007.85 1007.78 1007.56 1007.23 1006.85 1006.47 1006.12 1005.82 1005.58 1005.36 1005.16 1004.94 1004.69 1004.41 1004.14 1003.89 1003.71 1003.63 1003.67 1003.84 1004.12 1004.46 1004.82 1005.16 1005.43 1005.60 1005.67 1005.65 1005.56 1005.44 1005.33 1005.24
1005.26 1005.26 1005.28 1005.34 1005.46 1005.66 1005.94 1006.29 1006.66 1007.02 1007.33 1007.55 1007.68 1007.69 1007.62 1007.47 1007.28 1007.09 1006.90 1006.72 1006.55 1006.38 1006.17 1005.92 1005.63 1005.31 1004.98 1004.67 1004.43 1004.27 1004.22 1004.27 1004.41 1004.61 1004.83 1005.03 1005.19 1005.27 1005.28 1005.23 1005.14 1005.04 1004.95 1004.90
1005.67 1005.80 1005.94 1006.07 1006.22 1006.39 1006.57 1006.78 1006.99 1007.19 1007.37 1007.52 1007.63 1007.69 1007.72 1007.71 1007.69 1007.65 1007.59 1007.52 1007.41 1007.26 1007.05 1006.78 1006.47 1006.11 1005.75 1005.41 1005.13 1004.92 1004.79 1004.75 1004.78 1004.85 1004.94 1005.01 1005.05 1005.05 1005.01 1004.93 1004.84 1004.75 1004.69 1004.67
1006.10 1006.38 1006.65 1006.89 1007.08 1007.24 1007.35 1007.43 1007.49 1007.54 1007.59 1007.64 1007.71 1007.78 1007.87 1007.96 1008.05 1008.13 1008.17 1008.17 1008.11 1007.97 1007.76 1007.48 1007.14 1006.76 1006.39 1006.04 1005.74 1005.50 1005.33 1005.22 1005.16 1005.13 1005.11 1005.07 1005.01 1004.93 1004.84 1004.73 1004.64 1004.57 1004.54 1004.54
1006.49 1006.92 1007.32 1007.67 1007.93 1008.09 1008.15 1008.14 1008.07 1007.98 1007.90 1007.85 1007.85 1007.91 1008.02 1008.17 1008.34 1008.50 1008.61 1008.66 1008.63 1008.50 1008.28 1007.98 1007.63 1007.25 1006.88 1006.53 1006.22 1005.98 1005.78 1005.63 1005.51 1005.40 1005.29 1005.17 1005.03 1004.89 1004.75 1004.63 1004.54 1004.48 1004.47 1004.49
1006.78 1007.33 1007.85 1008.30 1008.62 1008.80 1008.84 1008.76 1008.59 1008.38 1008.19 1008.05 1007.99 1008.02 1008.14 1008.32 1008.54 1008.75 1008.92 1009.00 1008.99 1008.87 1008.65 1008.34 1007.98 1007.60 1007.23 1006.89 1006.59 1006.35 1006.14 1005.97 1005.80 1005.64 1005.46 1005.28 1005.08 1004.89 1004.73 1004.59 1004.50 1004.45 1004.45 1004.47
1006.94 1007.56 1008.15 1008.66 1009.03 1009.23 1009.25 1009.13 1008.89 1008.61 1008.34 1008.13 1008.03 1008.04 1008.16 1008.38 1008.63 1008.89 1009.10 1009.22 1009.23 1009.12 1008.90 1008.60 1008.24 1007.86 1007.49 1007.16 1006.88 1006.63 1006.42 1006.23 1006.04 1005.84 1005.62 1005.39 1005.15 1004.93 1004.73 1004.59 1004.49 1004.45 1004.44 1004.46
1006.96 1007.58 1008.19 1008.72 1009.10 1009.31 1009.32 1009.17 1008.90 1008.58 1008.27 1008.04 1007.92 1007.94 1008.08 1008.33 1008.63 1008.94 1009.19 1009.35 1009.39 1009.30 1009.10 1008.80 1008.45 1008.08 1007.73 1007.40 1007.12 1006.88 1006.66 1006.46 1006.24 1006.01 1005.76 1005.50 1005.23 1004.98 1004.77 1004.60 1004.50 1004.44 1004.43 1004.43
1006.86 1007.42 1007.99 1008.48 1008.84 1009.03 1009.03 1008.88 1008.61 1008.29 1007.99 1007.77 1007.68 1007.73 1007.92 1008.22 1008.58 1008.94 1009.24 1009.45 1009.52 1009.47 1009.29 1009.01 1008.67 1008.31 1007.96 1007.64 1007.36 1007.12 1006.90 1006.68 1006.44 1006.19 1005.91 1005.62 1005.33 1005.05 1004.81 1004.63 1004.50 1004.43 1004.40 1004.38
1006.69 1007.13 1007.59 1008.00 1008.30 1008.46 1008.46 1008.31 1008.07 1007.79 1007.55 1007.39 1007.36 1007.48 1007.73 1008.10 1008.52 1008.93 1009.29 1009.54 1009.66 1009.64 1009.49 1009.24 1008.92 1008.57 1008.23 1007.92 1007.63 1007.38 1007.15 1006.92 1006.67 1006.39 1006.09 1005.77 1005.45 1005.15 1004.88 1004.67 1004.51 1004.40 1004.34 1004.30
1006.49 1006.76 1007.08 1007.38 1007.61 1007.72 1007.72 1007.61 1007.43 1007.23 1007.07 1007.01 1007.07 1007.27 1007.61 1008.04 1008.52 1008.99 1009.39 1009.68 1009.84 1009.85 1009.72 1009.49 1009.20 1008.86 1008.53 1008.22 1007.94 1007.68 1007.44 1007.19 1006.93 1006.63 1006.31 1005.96 1005.61 1005.27 1004.97 1004.71 1004.50 1004.35 1004.24 1004.17
1006.28 1006.38 1006.55 1006.73 1006.88 1006.97 1006.98 1006.92 1006.83 1006.74 1006.70 1006.75 1006.92 1007.21 1007.62 1008.11 1008.63 1009.13 1009.56 1009.87 1010.05 1010.08 1009.98 1009.77 1009.49 1009.18 1008.86 1008.55 1008.27 1008.01 1007.76 1007.50 1007.22 1006.90 1006.55 1006.18 1005.79 1005.41 1005.06 1004.74 1004.48 1004.27 1004.10 1003.98
1006.09 1006.04 1006.07 1006.15 1006.24 1006.32 1006.37 1006.40 1006.41 1006.45 1006.54 1006.72 1006.99 1007.37 1007.83 1008.35 1008.89 1009.38 1009.80 1010.11 1010.28 1010.32 1010.23 1010.04 1009.78 1009.48 1009.18 1008.88 1008.61 1008.35 1008.09 1007.82 1007.52 1007.18 1006.81 1006.41 1005.98 1005.55 1005.13 1004.75 1004.42 1004.14 1003.91 1003.73
1005.93 1005.76 1005.70 1005.72 1005.79 1005.90 1006.01 1006.14 1006.28 1006.46 1006.68 1006.97 1007.33 1007.76 1008.25 1008.76 1009.27 1009.73 1010.11 1010.39 1010.53 1010.56 1010.46 1010.28 1010.04 1009.76 1009.48 1009.20 1008.93 1008.67 1008.41 1008.13 1007.81 1007.46 1007.06 1006.62 1006.15 1005.67 1005.19 1004.74 1004.33 1003.98 1003.67 1003.43
1005.80 1005.57 1005.48 1005.49 1005.59 1005.75 1005.96 1006.21 1006.48 1006.78 1007.11 1007.49 1007.91 1008.36 1008.83 1009.31 1009.75 1010.14 1010.45 1010.66 1010.77 1010.76 1010.67 1010.49 1010.27 1010.01 1009.75 1009.49 1009.23 1008.97 1008.70 1008.41 1008.07 1007.69 1007.26 1006.79 1006.28 1005.75 1005.22 1004.70 1004.22 1003.79 1003.42 1003.11
Thickness
5858 5846 5841 5851 5859 5856 5856 5852 5851 5861 5880 5871 5861 5858 5863 5869 5865 5858 5853 5849 5844 5841 5843 5842 5839 5837 5833 5828 5823 5819 5816 5813 5811 5807 5803 5800 5798 5798 5797 5797 5795 5794 5792 5791
5844 5841 5858 5869 5868 5862 5856 5847 5850 5864 5878 5869 5859 5858 5867 5869 5865 5863 5857 5852 5848 5844 5842 5840 5838 5835 5832 5826 5823 5819 5815 5813 5810 5808 5805 5803 5801 5799 5799 5798 5796 5794 5792 5791
5835 5854 5872 5865 5857 5849 5850 5849 5853 5855 5866 5870 5858 5846 5854 5862 5869 5867 5864 5860 5856 5849 5842 5839 5836 5834 5832 5826 5823 5820 5816 5813 5810 5809 5807 5804 5800 5798 5796 5794 5793 5793 5792 5791
5847 5864 5864 5857 5853 5850 5840 5862 5862 5857 5848 5841 5848 5821 5840 5851 5856 5858 5860 5860 5857 5853 5848 5842 5838 5834 5831 5828 5826 5821 5816 5813 5810 5808 5805 5800 5795 5791 5792 5793 5793 5792 5792 5790
5844 5859 5856 5849 5855 5858 5853 5868 5863 5857 5846 5836 5843 5828 5836 5854 5847 5852 5858 5860 5859 5856 5851 5845 5840 5836 5834 5831 5826 5821 5816 5812 5810 5807 5804 5799 5796 5794 5794 5793 5792 5791 5791 5790
5852 5869 5867 5860 5867 5869 5867 5861 5855 5852 5839 5816 5833 5830 5829 5845 5852 5856 5859 5861 5860 5858 5853 5847 5844 5839 5834 5832 5827 5822 5815 5810 5809 5806 5803 5799 5795 5793 5791 5790 5788 5788 5788 5788
5836 5853 5868 5871 5854 5861 5859 5835 5813 5808 5809 5814 5845 5836 5837 5859 5870 5867 5862 5860 5860 5859 5853 5846 5841 5836 5832 5829 5826 5821 5814 5809 5807 5805 5801 5799 5796 5793 5789 5788 5787 5786 5785 5785
5819 5827 5856 5863 5853 5845 5849 5839 5809 5795 5801 5819 5840 5830 5847 5870 5877 5876 5871 5865 5861 5856 5853 5847 5842 5837 5832 5828 5824 5819 5813 5808 5806 5802 5799 5798 5795 5793 5790 5789 5788 5786 5785 5784
5823 5827 5860 5867 5868 5857 5841 5840 5850 5829 5823 5814 5820 5832 5847 5864 5865 5866 5865 5860 5855 5853 5850 5846 5843 5838 5833 5828 5823 5818 5812 5807 5804 5801 5798 5795 5794 5791 5789 5789 5787 5786 5785 5785
5835 5820 5844 5861 5863 5860 5855 5851 5841 5822 5799 5793 5804 5815 5822 5837 5846 5851 5850 5851 5849 5849 5848 5844 5840 5836 5832 5827 5822 5818 5813 5806 5803 5800 5797 5795 5792 5790 5788 5787 5785 5783 5783 5782
5837 5818 5828 5842 5836 5835 5842 5840 5835 5827 5820 5801 5792 5806 5840 5837 5845 5845 5845 5848 5847 5844 5842 5838 5836 5833 5830 5825 5819 5814 5810 5805 5801 5799 5796 5794 5791 5789 5787 5784 5783 5782 5781 5779
5831 5821 5811 5826 5851 5858 5848 5841 5834 5813 5808 5815 5804 5807 5850 5847 5846 5843 5843 5846 5844 5840 5839 5836 5832 5829 5824 5820 5816 5811 5807 5803 5800 5797 5794 5791 5789 5787 5785 5783 5782 5780 5779 5777
5818 5805 5790 5798 5820 5837 5835 5839 5840 5836 5824 5812 5800 5805 5841 5841 5840 5840 5839 5836 5835 5831 5831 5829 5825 5822 5817 5814 5811 5808 5805 5801 5799 5796 5792 5788 5786 5784 5783 5781 5780 5778 5777 5775
5812 5798 5788 5781 5795 5812 5814 5825 5833 5827 5812 5808 5809 5809 5823 5828 5828 5832 5831 5829 5827 5824 5822 5820 5816 5814 5812 5809 5806 5804 5801 5799 5797 5793 5790 5786 5784 5782 5781 5780 5778 5776 5774 5772
5805 5787 5791 5800 5812 5815 5811 5813 5820 5819 5819 5809 5811 5811 5816 5821 5823 5826 5826 5825 5821 5816 5814 5811 5808 5806 5805 5803 5800 5798 5796 5794 5793 5789 5786 5783 5782 5780 5778 5776 5774 5773 5771 5770
5794 5780 5781 5786 5802 5807 5804 5810 5815 5816 5819 5814 5810 5808 5821 5823 5822 5818 5818 5815 5811 5807 5806 5805 5802 5799 5797 5795 5793 5791 5789 5789 5787 5783 5781 5779 5778 5775 5773 5772 5770 5768 5766 5765
5778 5771 5764 5767 5788 5792 5784 5805 5809 5811 5818 5814 5800 5801 5813 5809 5808 5808 5809 5807 5804 5802 5800 5796 5794 5793 5790 5788 5787 5784 5784 5784 5782 5779 5777 5775 5773 5770 5768 5768 5766 5763 5761 5759
5765 5759 5759 5760 5764 5747 5784 5817 5816 5810 5810 5812 5810 5808 5805 5802 5805 5806 5805 5800 5797 5796 5793 5790 5789 5788 5786 5785 5782 5781 5780 5778 5775 5773 5771 5769 5767 5765 5764 5762 5760 5758 5757 5755
5770 5757 5750 5749 5745 5754 5776 5795 5795 5785 5784 5799 5799 5799 5800 5801 5794 5789 5794 5796 5792 5790 5788 5785 5784 5782 5780 5778 5777 5774 5772 5769 5766 5764 5763 5763 5761 5759 5757 5755 5754 5753 5751 5749
5763 5758 5745 5742 5734 5733 5759 5784 5795 5783 5767 5788 5791 5788 5788 5785 5767 5765 5781 5785 5784 5782 5781 5779 5777 5775 5771 5770 5768 5764 5761 5759 5757 5757 5756 5756 5755 5753 5751 5750 5749 5748 5746 5744
5738 5738 5734 5733 5729 5738 5757 5773 5776 5747 5747 5773 5777 5775 5776 5769 5765 5768 5774 5774 5773 5772 5771 5770 5767 5764 5761 5761 5758 5753 5751 5749 5749 5750 5749 5748 5748 5747 5746 5745 5744 5741 5740 5738
5726 5725 5725 5725 5718 5721 5750 5753 5744 5742 5758 5762 5765 5766 5763 5762 5763 5764 5764 5763 5762 5759 5759 5759 5756 5754 5754 5752 5749 5744 5742 5743 5743 5742 5740 5739 5739 5739 5740 5738 5737 5736 5733 5731
5724 5724 5724 5721 5720 5735 5745 5742 5746 5750 5750 5752 5756 5758 5757 5754 5753 5753 5752 5752 5750 5749 5748 5749 5746 5744 5744 5744 5742 5736 5736 5737 5734 5732 5731 5730 5731 5731 5731 5731 5730 5729 5727 5725
5720 5727 5720 5714 5724 5730 5731 5733 5736 5740 5740 5746 5749 5749 5749 5745 5744 5742 5742 5741 5740 5740 5739 5739 5737 5734 5733 5733 5732 5731 5731 5730 5727 5724 5724 5724 5723 5723 5724 5724 5723 5722 5721 5720
5702 5705 5702 5702 5709 5716 5716 5720 5724 5729 5735 5736 5737 5738 5738 5736 5734 5733 5732 5732 5732 5732 5732 5730 5728 5726 5725 5725 5724 5724 5724 5722 5719 5717 5717 5717 5717 5717 5716 5716 5715 5715 5714 5713
5697 5692 5688 5688 5698 5697 5702 5713 5718 5718 5720 5724 5725 5723 5728 5728 5725 5724 5723 5723 5724 5723 5724 5722 5720 5719 5718 5717 5716 5716 5716 5713 5710 5709 5709 5710 5710 5710 5710 5709 5707 5706 5706 5704